STARLINK-1792

operational
NORAD ID: 46693 Int'l Des: 2020-073 Owner: SPXS Country: US Constellation: starlink
LEOCIRCULAR

Über STARLINK-1792

Beschreibung wird geladen...

Live-Position

3D-Globus wird geladen...

Nächste Überflüge

Höhenverlauf

Altitude vs Time

uPlot chart will show altitude changes over time

Zweizeiliger Elementsatz

1 46693U 20073Z 25250.42627172 .12814095 12391-4 88728-3 0 9991
2 46693 52.9957 248.2421 0002197 292.7320 67.3494 16.40437363270845
Epoch: 7. Sept. 2025 • Age: 219 hours

Aktueller Status

Position data unavailable
Startdatum 18. Okt. 2020
Alter 4.9 years
Verglühungsdatum 7. Sept. 2025
Typ internet

Technische Details

Klassifizierung Payload
Masse 260.00 kg
Trockenmasse 248.00 kg
Gesamtmasse 260.00 kg
Länge 0.20 m
Durchmesser 2.80 m
Spannweite 9.00 m
Form Box + pan
Hersteller SPXS
Bus-Typ Starlink
Phasenstatus Reentered
Besitzer/Staat SPXS/US

Große Konstellationen

Loading constellations...